Simultaneous Nadir Overpasses (SNOs) Predictions

Prediction of SNOs between GOES-14 and NOAA-20 Satellite Orbit:

Table of predicted SNOs for the next 14.0 days since TLE Epoch: 2/18/2023
Index Date Time (GOES-14) GOES-14 Lat,Lon NOAA-20 Lat,Lon Distance(km) Time Diff (sec)
1 02/18/2023 20:23:39 -0.03,-108.15 0.83,-104.42 425.59 80
2 02/20/2023 08:45:28 0.04,-108.06 0.42,-109.68 185.13 80
3 02/21/2023 08:24:04 0.04,-108.04 -0.58,-105.15 329.13 80
4 02/22/2023 20:46:03 -0.04,-108.09 -0.55,-110.47 270.33 80
5 02/23/2023 20:30:00 -0.04,-108.09 0.47,-105.94 244.63 80
6 02/25/2023 08:51:48 0.05,-108.01 0.77,-111.20 364.81 80
7 02/26/2023 08:30:25 0.04,-107.99 -0.24,-106.68 149.54 80
8 02/27/2023 20:52:23 -0.05,-108.03 -0.93,-111.99 450.70 80
9 02/28/2023 20:36:20 -0.05,-108.02 0.09,-107.46 64.18 80
10 03/03/2023 08:39:24 0.06,-107.93 0.11,-108.20 30.17 80
